Time,TemperatureF,DewpointF,PressureIn,WindDirection,WindDirectionDegrees,WindSpeedMPH,WindSpeedGustMPH,Humidity,HourlyPrecipIn,Conditions,Clouds,dailyrainin,SoftwareType,DateUTC
2013-01-26 00:03:00,41.1,33.0,30.03,SSW,200,0.0,-999.0,72,-99.99,,,0.00,weatherlink.com 1.10,2013-01-26 07:03:00,
2013-01-26 00:18:00,40.8,33.0,30.02,SSW,200,0.0,-999.0,73,-99.99,,,0.00,weatherlink.com 1.10,2013-01-26 07:18:00,
2013-01-26 00:33:00,40.5,32.0,30.02,SSW,200,0.0,-999.0,73,-99.99,,,0.00,weatherlink.com 1.10,2013-01-26 07:33:00,
2013-01-26 00:48:00,40.1,32.0,30.02,SSW,200,0.0,-999.0,73,-99.99,,,0.00,weatherlink.com 1.10,2013-01-26 07:48:00,
2013-01-26 01:03:00,39.9,32.0,30.02,SSW,200,0.0,-999.0,74,-99.99,,,0.00,weatherlink.com 1.10,2013-01-26 08:03:00,
2013-01-26 01:18:00,40.1,32.0,29.99,SSW,200,0.0,-999.0,74,-99.99,,,0.00,weatherlink.com 1.10,2013-01-26 08:18:00,
2013-01-26 01:33:00,40.2,33.0,29.99,SSW,200,0.0,-999.0,75,-99.99,,,0.00,weatherlink.com 1.10,2013-01-26 08:33:00,
2013-01-26 02:03:00,40.6,34.0,29.99,SSW,200,0.0,-999.0,77,-99.99,,,0.00,weatherlink.com 1.10,2013-01-26 09:03:00,
2013-01-26 02:18:00,40.8,34.0,29.98,SSW,200,0.0,-999.0,78,-99.99,,,0.00,weatherlink.com 1.10,2013-01-26 09:18:00,
2013-01-26 02:34:00,40.8,34.0,29.97,SSW,200,0.0,-999.0,77,-99.99,,,0.00,weatherlink.com 1.10,2013-01-26 09:34:00,
2013-01-26 02:48:00,40.8,34.0,29.96,SSW,200,0.0,-999.0,77,-99.99,,,0.00,weatherlink.com 1.10,2013-01-26 09:48:00,
2013-01-26 03:03:00,40.8,34.0,29.96,SSW,200,0.0,-999.0,77,-99.99,,,0.00,weatherlink.com 1.10,2013-01-26 10:03:00,
2013-01-26 03:18:00,40.8,34.0,29.96,SSW,200,0.0,-999.0,76,-99.99,,,0.00,weatherlink.com 1.10,2013-01-26 10:18:00,
2013-01-26 03:33:00,40.8,34.0,29.95,SSW,200,0.0,-999.0,76,-99.99,,,0.00,weatherlink.com 1.10,2013-01-26 10:33:00,
2013-01-26 03:49:00,40.8,33.0,29.94,SSW,200,0.0,-999.0,75,-99.99,,,0.00,weatherlink.com 1.10,2013-01-26 10:49:00,
2013-01-26 04:03:00,40.9,34.0,29.95,SSW,200,0.0,-999.0,75,-99.99,,,0.00,weatherlink.com 1.10,2013-01-26 11:03:00,
2013-01-26 04:19:00,41.1,33.0,29.95,SSW,200,0.0,-999.0,74,-99.99,,,0.00,weatherlink.com 1.10,2013-01-26 11:19:00,
2013-01-26 04:33:00,41.3,34.0,29.95,SSW,200,0.0,-999.0,74,-99.99,,,0.00,weatherlink.com 1.10,2013-01-26 11:33:00,
2013-01-26 04:49:00,41.5,33.0,29.95,SSW,200,0.0,-999.0,73,-99.99,,,0.00,weatherlink.com 1.10,2013-01-26 11:49:00,
2013-01-26 05:04:00,41.6,33.0,29.95,SSW,200,0.0,-999.0,72,-99.99,,,0.00,weatherlink.com 1.10,2013-01-26 12:04:00,
2013-01-26 05:19:00,41.6,33.0,29.98,SSW,200,0.0,-999.0,72,-99.99,,,0.00,weatherlink.com 1.10,2013-01-26 12:19:00,
2013-01-26 05:34:00,41.8,33.0,29.97,SSW,200,0.0,-999.0,71,-99.99,,,0.00,weatherlink.com 1.10,2013-01-26 12:34:00,
2013-01-26 05:49:00,42.2,33.0,29.97,SSW,200,0.0,-999.0,70,-99.99,,,0.00,weatherlink.com 1.10,2013-01-26 12:49:00,
2013-01-26 06:03:00,42.6,33.0,29.96,SSE,152,1.0,-999.0,70,-99.99,,,0.00,weatherlink.com 1.10,2013-01-26 13:03:00,
2013-01-26 06:19:00,43.1,33.0,29.98,North,359,1.0,-999.0,68,-99.99,,,0.00,weatherlink.com 1.10,2013-01-26 13:19:00,
2013-01-26 06:34:00,42.9,33.0,29.97,North,359,0.0,-999.0,68,-99.99,,,0.00,weatherlink.com 1.10,2013-01-26 13:34:00,
2013-01-26 06:49:00,42.3,33.0,29.97,North,359,0.0,-999.0,69,-99.99,,,0.00,weatherlink.com 1.10,2013-01-26 13:49:00,
2013-01-26 07:04:00,41.8,33.0,29.96,North,0,0.0,-999.0,70,-99.99,,,0.00,weatherlink.com 1.10,2013-01-26 14:04:00,
2013-01-26 07:19:00,41.3,32.0,29.96,North,0,0.0,-999.0,70,-99.99,,,0.00,weatherlink.com 1.10,2013-01-26 14:19:00,
2013-01-26 07:34:00,40.8,32.0,29.97,North,0,0.0,-999.0,71,-99.99,,,0.00,weatherlink.com 1.10,2013-01-26 14:34:00,
2013-01-26 07:49:00,41.1,33.0,29.96,North,0,0.0,-999.0,72,-99.99,,,0.00,weatherlink.com 1.10,2013-01-26 14:49:00,
2013-01-26 08:04:00,42.8,33.0,29.96,NE,38,0.0,-999.0,68,-99.99,,,0.00,weatherlink.com 1.10,2013-01-26 15:04:00,
2013-01-26 08:19:00,43.9,33.0,29.95,NE,51,2.0,-999.0,65,-99.99,,,0.00,weatherlink.com 1.10,2013-01-26 15:19:00,
2013-01-26 08:34:00,44.8,33.0,29.95,ENE,73,0.0,-999.0,64,-99.99,,,0.00,weatherlink.com 1.10,2013-01-26 15:34:00,
2013-01-26 08:49:00,45.8,33.0,29.94,NE,48,0.0,-999.0,62,-99.99,,,0.00,weatherlink.com 1.10,2013-01-26 15:49:00,
2013-01-26 09:04:00,46.5,33.0,29.93,NE,48,0.0,-999.0,60,-99.99,,,0.00,weatherlink.com 1.10,2013-01-26 16:04:00,
2013-01-26 09:19:00,47.3,33.0,29.95,ENE,59,0.0,-999.0,58,-99.99,,,0.00,weatherlink.com 1.10,2013-01-26 16:19:00,
2013-01-26 09:34:00,47.9,33.0,29.94,NNE,24,0.0,-999.0,57,-99.99,,,0.00,weatherlink.com 1.10,2013-01-26 16:34:00,
2013-01-26 09:49:00,48.0,33.0,29.94,NNE,24,0.0,-999.0,57,-99.99,,,0.00,weatherlink.com 1.10,2013-01-26 16:49:00,
2013-01-26 10:04:00,48.3,33.0,29.94,NNE,28,0.0,-999.0,57,-99.99,,,0.00,weatherlink.com 1.10,2013-01-26 17:04:00,
2013-01-26 10:19:00,48.6,33.0,29.94,NNE,27,0.0,-999.0,56,-99.99,,,0.00,weatherlink.com 1.10,2013-01-26 17:19:00,
2013-01-26 10:34:00,49.1,33.0,29.94,NNE,28,0.0,-999.0,55,-99.99,,,0.00,weatherlink.com 1.10,2013-01-26 17:34:00,
2013-01-26 10:49:00,49.5,34.0,29.95,NNE,28,0.0,-999.0,55,-99.99,,,0.00,weatherlink.com 1.10,2013-01-26 17:49:00,
2013-01-26 11:04:00,49.8,35.0,29.93,NNE,28,0.0,-999.0,57,-99.99,,,0.00,weatherlink.com 1.10,2013-01-26 18:04:00,
2013-01-26 11:19:00,49.6,38.0,29.94,NNE,28,0.0,-999.0,65,-99.99,,,0.00,weatherlink.com 1.10,2013-01-26 18:19:00,
2013-01-26 11:34:00,49.1,40.0,29.93,NNE,28,0.0,-999.0,71,-99.99,,,0.02,weatherlink.com 1.10,2013-01-26 18:34:00,
2013-01-26 11:49:00,48.6,41.0,29.93,NNE,28,0.0,-999.0,75,-99.99,,,0.04,weatherlink.com 1.10,2013-01-26 18:49:00,
2013-01-26 12:04:00,47.7,41.0,29.92,NNE,28,0.0,-999.0,78,-99.99,,,0.05,weatherlink.com 1.10,2013-01-26 19:04:00,
2013-01-26 12:19:00,47.1,41.0,29.93,NNE,28,0.0,-999.0,80,-99.99,,,0.06,weatherlink.com 1.10,2013-01-26 19:19:00,
2013-01-26 12:34:00,46.4,41.0,29.92,NNE,28,0.0,-999.0,81,-99.99,,,0.08,weatherlink.com 1.10,2013-01-26 19:34:00,
2013-01-26 12:49:00,46.1,41.0,29.91,NNE,28,0.0,-999.0,83,-99.99,,,0.10,weatherlink.com 1.10,2013-01-26 19:49:00,
2013-01-26 13:04:00,46.1,42.0,29.90,NNE,28,0.0,-999.0,84,-99.99,,,0.12,weatherlink.com 1.10,2013-01-26 20:04:00,
2013-01-26 13:19:00,47.0,43.0,29.87,NNE,27,0.0,-999.0,86,-99.99,,,0.12,weatherlink.com 1.10,2013-01-26 20:19:00,
2013-01-26 13:34:00,47.4,43.0,29.85,NNE,25,0.0,-999.0,86,-99.99,,,0.12,weatherlink.com 1.10,2013-01-26 20:34:00,
2013-01-26 13:49:00,47.7,44.0,29.84,NNE,25,0.0,-999.0,86,-99.99,,,0.12,weatherlink.com 1.10,2013-01-26 20:49:00,
2013-01-26 14:04:00,48.6,45.0,29.83,SSW,210,0.0,-999.0,87,-99.99,,,0.12,weatherlink.com 1.10,2013-01-26 21:04:00,
2013-01-26 14:19:00,49.2,45.0,29.81,SSW,212,0.0,-999.0,86,-99.99,,,0.12,weatherlink.com 1.10,2013-01-26 21:19:00,
2013-01-26 14:35:00,50.5,47.0,29.80,SSW,210,0.0,-999.0,86,-99.99,,,0.12,weatherlink.com 1.10,2013-01-26 21:35:00,
2013-01-26 14:49:00,50.8,47.0,29.77,SSW,213,0.0,-999.0,85,-99.99,,,0.12,weatherlink.com 1.10,2013-01-26 21:49:00,
2013-01-26 15:04:00,52.6,48.0,29.79,SSW,213,0.0,-999.0,83,-99.99,,,0.13,weatherlink.com 1.10,2013-01-26 22:04:00,
2013-01-26 15:19:00,53.3,47.0,29.78,SW,223,0.0,-999.0,79,-99.99,,,0.13,weatherlink.com 1.10,2013-01-26 22:19:00,
2013-01-26 15:33:00,52.9,47.0,29.76,SW,222,0.0,-999.0,79,-99.99,,,0.13,weatherlink.com 1.10,2013-01-26 22:33:00,
2013-01-26 15:49:00,53.1,47.0,29.75,SW,222,0.0,-999.0,80,-99.99,,,0.13,weatherlink.com 1.10,2013-01-26 22:49:00,
2013-01-26 16:04:00,53.2,47.0,29.75,SW,222,0.0,-999.0,79,-99.99,,,0.13,weatherlink.com 1.10,2013-01-26 23:04:00,
2013-01-26 16:19:00,53.5,47.0,29.75,SW,222,0.0,-999.0,79,-99.99,,,0.13,weatherlink.com 1.10,2013-01-26 23:19:00,
2013-01-26 16:35:00,53.5,47.0,29.74,SW,222,0.0,-999.0,79,-99.99,,,0.13,weatherlink.com 1.10,2013-01-26 23:35:00,
2013-01-26 16:49:00,53.5,48.0,29.74,ESE,116,1.0,-999.0,80,-99.99,,,0.13,weatherlink.com 1.10,2013-01-26 23:49:00,
2013-01-26 17:04:00,54.4,46.0,29.72,South,184,0.0,-999.0,74,-99.99,,,0.13,weatherlink.com 1.10,2013-01-27 00:04:00,
2013-01-26 17:19:00,54.1,46.0,29.73,SE,131,5.0,-999.0,75,-99.99,,,0.13,weatherlink.com 1.10,2013-01-27 00:19:00,
2013-01-26 17:34:00,53.6,46.0,29.74,SW,219,0.0,-999.0,76,-99.99,,,0.13,weatherlink.com 1.10,2013-01-27 00:34:00,
2013-01-26 17:50:00,52.2,43.0,29.78,South,172,0.0,-999.0,72,-99.99,,,0.14,weatherlink.com 1.10,2013-01-27 00:50:00,
2013-01-26 18:04:00,49.4,41.0,29.79,South,184,0.0,-999.0,74,-99.99,,,0.14,weatherlink.com 1.10,2013-01-27 01:04:00,
2013-01-26 18:20:00,48.6,42.0,29.80,South,184,0.0,-999.0,77,-99.99,,,0.14,weatherlink.com 1.10,2013-01-27 01:20:00,
2013-01-26 18:34:00,47.9,42.0,29.81,South,184,0.0,-999.0,79,-99.99,,,0.14,weatherlink.com 1.10,2013-01-27 01:34:00,
2013-01-26 18:50:00,47.3,41.0,29.81,South,184,0.0,-999.0,80,-99.99,,,0.14,weatherlink.com 1.10,2013-01-27 01:50:00,
2013-01-26 19:05:00,47.0,41.0,29.82,South,184,0.0,-999.0,81,-99.99,,,0.14,weatherlink.com 1.10,2013-01-27 02:05:00,
2013-01-26 19:19:00,46.8,41.0,29.83,South,184,0.0,-999.0,81,-99.99,,,0.14,weatherlink.com 1.10,2013-01-27 02:19:00,
2013-01-26 19:34:00,46.4,41.0,29.83,South,184,0.0,-999.0,81,-99.99,,,0.14,weatherlink.com 1.10,2013-01-27 02:34:00,
2013-01-26 19:49:00,45.7,40.0,29.83,South,184,0.0,-999.0,81,-99.99,,,0.14,weatherlink.com 1.10,2013-01-27 02:49:00,
2013-01-26 20:05:00,44.8,40.0,29.84,South,184,0.0,-999.0,82,-99.99,,,0.14,weatherlink.com 1.10,2013-01-27 03:05:00,
2013-01-26 20:20:00,43.8,39.0,29.82,South,184,0.0,-999.0,82,-99.99,,,0.14,weatherlink.com 1.10,2013-01-27 03:20:00,
2013-01-26 20:35:00,43.1,38.0,29.83,South,184,0.0,-999.0,83,-99.99,,,0.14,weatherlink.com 1.10,2013-01-27 03:35:00,
2013-01-26 20:50:00,42.3,38.0,29.83,South,184,0.0,-999.0,84,-99.99,,,0.14,weatherlink.com 1.10,2013-01-27 03:50:00,
2013-01-26 21:05:00,41.6,37.0,29.83,South,184,0.0,-999.0,84,-99.99,,,0.14,weatherlink.com 1.10,2013-01-27 04:05:00,
2013-01-26 21:20:00,41.2,37.0,29.84,South,184,0.0,-999.0,85,-99.99,,,0.14,weatherlink.com 1.10,2013-01-27 04:20:00,
2013-01-26 21:35:00,40.9,37.0,29.84,South,184,0.0,-999.0,86,-99.99,,,0.14,weatherlink.com 1.10,2013-01-27 04:35:00,
2013-01-26 21:50:00,41.1,37.0,29.84,South,184,0.0,-999.0,86,-99.99,,,0.14,weatherlink.com 1.10,2013-01-27 04:50:00,
2013-01-26 22:05:00,41.2,38.0,29.83,South,184,0.0,-999.0,87,-99.99,,,0.14,weatherlink.com 1.10,2013-01-27 05:05:00,
2013-01-26 22:20:00,42.3,38.0,29.81,South,191,0.0,-999.0,86,-99.99,,,0.14,weatherlink.com 1.10,2013-01-27 05:20:00,
2013-01-26 22:35:00,42.6,39.0,29.82,South,191,0.0,-999.0,86,-99.99,,,0.14,weatherlink.com 1.10,2013-01-27 05:35:00,
2013-01-26 22:50:00,42.6,39.0,29.82,South,191,0.0,-999.0,86,-99.99,,,0.14,weatherlink.com 1.10,2013-01-27 05:50:00,
2013-01-26 23:06:00,42.8,39.0,29.82,South,191,0.0,-999.0,85,-99.99,,,0.14,weatherlink.com 1.10,2013-01-27 06:06:00,
2013-01-26 23:20:00,43.5,38.0,29.83,SSW,192,0.0,-999.0,82,-99.99,,,0.14,weatherlink.com 1.10,2013-01-27 06:20:00,
2013-01-26 23:35:00,43.3,38.0,29.84,SSW,192,0.0,-999.0,80,-99.99,,,0.14,weatherlink.com 1.10,2013-01-27 06:35:00,
2013-01-26 23:50:00,43.2,37.0,29.84,SSW,192,0.0,-999.0,80,-99.99,,,0.14,weatherlink.com 1.10,2013-01-27 06:50:00,